Погода в Копцевых Хутора

Россия / Липецкая область     52°40′38″N   39°27′34″E
темп.,
°C
ветер,
м/с
пор.,
м/с
влажн.,
%
обл.,
%
осадки,
мм/ч
давл.,
гПа
погр.,
м
12 апреля, пн
пн1200:00+7св51266100 0.0 1030343
03:00+6св51278100 0.0 1029352
06:00+5всв51190100 0.3 1029331
09:00+8всв6983100 0.3 1029374
12:00+14в6966100 0.0 1027561
15:00+19в6948100 0.0 10261026
18:00+18вюв5104573 0.0 1026279
21:00+14вюв512655 0.0 1027224
13 апреля, вт
вт1300:00+12вюв4126476 0.0 1027224
03:00+10вюв496980 0.0 1027133
06:00+9вюв497152 0.0 1027152
09:00+14юв59506 0.0 1027381
12:00+19юв68345 0.0 10261155
15:00+21юв792854 0.0 10251894
18:00+19юв59340 0.0 1024374
21:00+15юв512430 0.0 1025304
14 апреля, ср
ср1400:00+12юв4105425 0.0 1024210
03:00+10вюв486399 0.0 1024148
06:00+9вюв3868100 0.0 1023163
09:00+13юв5951100 0.0 1023377
12:00+18юв68355 0.0 1021997
15:00+20юв69285 0.0 10202086
18:00+18юв483438 0.0 1019373
21:00+14юв4847100 0.0 1019157
15 апреля, чт
чт1500:00+12юв345783 0.0 101856
03:00+10юв3360100 0.0 101842
06:00+9вюв336557 0.0 101832
09:00+14вюв455248 0.0 1018315
12:00+18вюв4538100 0.0 10171129
15:00+20юв5731100 0.0 10152441
18:00+18вюв2242100 0.0 101465
21:00+15в335479 0.1 101451
16 апреля, пт
пт1600:00+13вюв226593 0.0 101334
03:00+12ююз3362100 0.0 101339
06:00+12св1171100 0.0 101313
09:00+15вюв3555100 0.0 1013358
12:00+18вюв4548100 0.2 10131413
15:00+17ссв1350100 2.0 1013832
18:00+12з5689100 4.8 1014217
21:00+11ссв4694100 26.0 1015375